Location: Chieti
(42.3500°N, 14.1670°E)
Time: 08:38:17
(UTC+02:00)

ISS - Visible Passes

Search period start: 08 May 2021 00:00
Search period end: 18 May 2021 00:00
Orbit: 418 x 421 km, 51.6° (Epoch: 08 May)

Date Brightness Start Highest point End Pass type
(mag) Time Alt. Az. Time Alt. Az. Time Alt. Az.
08 May -1.5 02:49:24 22° NNW 02:49:27 22° NNW 02:52:10 10° NE visible
08 May -1.0 04:24:48 10° NW 04:27:09 17° N 04:29:29 10° NE visible
09 May -0.9 02:03:27 19° NNE 02:03:27 19° NNE 02:04:49 10° NE visible
09 May -0.9 03:37:12 10° NW 03:39:29 17° N 03:41:46 10° NE visible
09 May -1.5 05:14:10 10° NW 05:17:07 27° NNE 05:20:04 10° E visible
10 May -0.4 01:17:27 10° NE 01:17:27 10° NE 01:17:28 10° NE visible
10 May -1.0 02:50:23 14° NW 02:51:49 17° N 02:54:10 10° NE visible
10 May -1.2 04:26:48 10° NW 04:29:31 22° NNE 04:32:14 10° ENE visible
11 May -1.0 02:04:21 19° N 02:04:21 19° N 02:06:40 10° NE visible
11 May -1.0 03:39:23 10° NW 03:41:53 19° N 03:44:23 10° ENE visible
12 May -0.7 01:18:17 15° NNE 01:18:17 15° NNE 01:19:15 10° NE visible
12 May -0.8 02:51:54 10° NW 02:54:14 17° N 02:56:34 10° NE visible
12 May -2.1 04:28:35 10° NW 04:31:45 36° NNE 04:34:55 10° E visible
13 May -0.8 02:05:02 13° NNW 02:06:34 17° N 02:08:51 10° NE visible
13 May -1.5 03:41:15 10° NW 03:44:12 27° NNE 03:47:09 10° E visible
14 May -0.8 01:18:39 17° N 01:18:54 17° N 01:21:14 10° NE visible
14 May -1.2 02:53:53 10° NW 02:56:36 22° NNE 02:59:19 10° ENE visible
14 May -3.7 04:30:23 10° NW 04:33:47 85° NNE 04:37:10 10° ESE visible
14 May -2.4 21:14:44 10° S 21:17:17 20° SE 21:19:52 10° E visible
14 May -3.0 22:50:34 10° WSW 22:53:52 52° NNW 22:55:41 23° NE visible
15 May -0.9 00:28:46 10° WNW 00:31:15 19° N 00:33:44 10° NE visible
15 May -0.9 02:06:28 10° NW 02:08:57 19° N 02:11:27 10° ENE visible
15 May -3.0 03:43:00 10° NW 03:46:20 53° NNE 03:49:39 10° ESE visible
15 May -3.8 22:03:02 10° WSW 22:06:24 84° NNW 22:09:47 10° NE visible
15 May -1.2 23:40:54 10° WNW 23:43:36 22° NNW 23:46:19 10° NE visible
16 May -0.8 01:18:58 10° NW 01:21:18 17° N 01:23:38 10° NE visible
16 May -2.2 02:55:38 10° NW 02:58:49 36° NNE 03:01:59 10° E visible
16 May -3.1 04:32:31 10° WNW 04:35:36 33° SW 04:38:40 10° SSE visible
16 May -3.8 21:15:42 10° SW 21:19:00 58° SE 21:22:19 10° ENE visible
16 May -1.5 22:53:04 10° W 22:56:00 27° NNW 22:58:57 10° NE visible
17 May -0.7 00:31:21 10° NW 00:33:38 17° N 00:35:54 10° NE visible
17 May -1.6 02:08:18 10° NW 02:11:15 27° NNE 02:14:12 10° E visible
17 May -3.8 03:45:05 11° WNW 03:48:15 57° SW 03:51:34 10° SE visible
17 May -2.1 22:05:18 10° W 22:08:26 36° NNW 22:11:35 10° NE visible
17 May -0.8 23:43:38 10° NW 23:45:57 17° N 23:48:17 10° NE visible
